| time (UTC) | temp C | wind direction | speed KPH | gust KPH | rain 1hr cm | rain 24hr cm | rain mn cm | humidity % | barometer mb |
| 20260506094505 | 13 | 38 | 6.4 | 14.5 | 0.00 | 0.00 | 0.00 | 60 | 1013.5 |
| 20260506094005 | 12 | 27 | 4.8 | 16.1 | 0.00 | 0.00 | 0.00 | 61 | 1013.5 |
| 20260506093503 | 12 | 32 | 8.0 | 20.9 | 0.00 | 0.00 | 0.00 | 60 | 1013.5 |
| 20260506093102 | 12 | 38 | 6.4 | 20.9 | 0.00 | 0.00 | 0.00 | 61 | 1013.4 |
| 20260506092533 | 12 | 39 | 8.0 | 17.7 | 0.00 | 0.00 | 0.00 | 60 | 1013.5 |
| 20260506092046 | 12 | 51 | 6.4 | 17.7 | 0.00 | 0.00 | 0.00 | 60 | 1013.5 |
| 20260506091546 | 12 | 57 | 8.0 | 17.7 | 0.00 | 0.00 | 0.00 | 60 | 1013.4 |
| 20260506091045 | 12 | 105 | 4.8 | 14.5 | 0.00 | 0.00 | 0.00 | 59 | 1013.4 |
| 20260506090545 | 12 | 188 | 3.2 | 17.7 | 0.00 | 0.00 | 0.00 | 61 | 1013.3 |
| 20260506090058 | 12 | 34 | 6.4 | 17.7 | 0.00 | 0.00 | 0.00 | 63 | 1013.4 |
| 20260506085543 | 12 | 57 | 4.8 | 11.3 | 0.00 | 0.00 | 0.00 | 64 | 1013.4 |
| 20260506085042 | 12 | 34 | 3.2 | 8.0 | 0.00 | 0.00 | 0.00 | 64 | 1013.5 |
| 20260506084546 | 12 | 47 | 3.2 | 11.3 | 0.00 | 0.00 | 0.00 | 64 | 1013.5 |
| 20260506084041 | 12 | 244 | 3.2 | 9.7 | 0.00 | 0.00 | 0.00 | 64 | 1013.4 |
| 20260506083540 | 12 | 355 | 3.2 | 9.7 | 0.00 | 0.00 | 0.00 | 66 | 1013.4 |
| 20260506083039 | 11 | 15 | 0.0 | 0.0 | 0.00 | 0.00 | 0.00 | 67 | 1013.4 |
| 20260506082540 | 11 | 360 | 0.0 | 0.0 | 0.00 | 0.00 | 0.00 | 67 | 1013.3 |
| 20260506082036 | 11 | 42 | 0.0 | 0.0 | 0.00 | 0.00 | 0.00 | 66 | 1013.3 |
| 20260506081541 | 11 | 17 | 0.0 | 0.0 | 0.00 | 0.00 | 0.00 | 67 | 1013.3 |
| 20260506081034 | 11 | 46 | 0.0 | 0.0 | 0.00 | 0.00 | 0.00 | 68 | 1013.4 |
| 20260506080535 | 11 | 27 | 0.0 | 9.7 | 0.00 | 0.00 | 0.00 | 70 | 1013.4 |
| 20260506073030 | 10 | 104 | 1.6 | 8.0 | 0.00 | 0.00 | 0.00 | 74 | 1013.4 |
| 20260506072530 | 10 | 57 | 1.6 | 12.9 | 0.00 | 0.00 | 0.00 | 74 | 1013.5 |
| 20260506072030 | 10 | 56 | 3.2 | 12.9 | 0.00 | 0.00 | 0.00 | 75 | 1013.5 |
| 20260506071529 | 9 | 42 | 1.6 | 11.3 | 0.00 | 0.00 | 0.00 | 75 | 1013.4 |
| 20260506071028 | 9 | 71 | 3.2 | 14.5 | 0.00 | 0.00 | 0.00 | 75 | 1013.5 |
| 20260506070528 | 9 | 334 | 3.2 | 16.1 | 0.00 | 0.00 | 0.00 | 75 | 1013.4 |
| 20260506062025 | 8 | 40 | 6.4 | 17.7 | 0.00 | 0.00 | 0.00 | 74 | 1013.3 |
| 20260506061527 | 8 | 44 | 6.4 | 12.9 | 0.00 | 0.00 | 0.00 | 74 | 1013.3 |
| 20260506061029 | 8 | 28 | 3.2 | 12.9 | 0.00 | 0.00 | 0.00 | 75 | 1013.2 |
| 20260506060525 | 8 | 50 | 3.2 | 12.9 | 0.00 | 0.00 | 0.00 | 75 | 1013.2 |
| 20260506051016 | 8 | 17 | 6.4 | 12.9 | 0.00 | 0.00 | 0.00 | 78 | 1013.0 |
| 20260506050515 | 8 | 46 | 3.2 | 14.5 | 0.00 | 0.00 | 0.00 | 78 | 1012.9 |
| 20260506045013 | 8 | 13 | 4.8 | 19.3 | 0.00 | 0.00 | 0.00 | 78 | 1012.9 |
| 20260506044516 | 8 | 32 | 3.2 | 12.9 | 0.00 | 0.00 | 0.00 | 78 | 1012.9 |
| 20260506044010 | 8 | 342 | 4.8 | 17.7 | 0.00 | 0.00 | 0.00 | 78 | 1012.8 |
| 20260506043510 | 8 | 22 | 6.4 | 17.7 | 0.00 | 0.00 | 0.00 | 78 | 1012.9 |
| 20260506043010 | 8 | 28 | 3.2 | 14.5 | 0.00 | 0.00 | 0.00 | 77 | 1012.9 |
| 20260506042510 | 8 | 28 | 4.8 | 14.5 | 0.00 | 0.00 | 0.00 | 77 | 1012.8 |
| 20260506042010 | 8 | 21 | 1.6 | 12.9 | 0.00 | 0.00 | 0.00 | 77 | 1012.8 |
| 20260506041509 | 8 | 47 | 3.2 | 14.5 | 0.00 | 0.00 | 0.00 | 77 | 1012.8 |
| 20260506041007 | 8 | 23 | 3.2 | 14.5 | 0.00 | 0.00 | 0.00 | 77 | 1012.7 |
| 20260506040507 | 8 | 40 | 6.4 | 14.5 | 0.00 | 0.00 | 0.00 | 76 | 1012.6 |
| 20260506040005 | 8 | 48 | 4.8 | 11.3 | 0.00 | 0.00 | 0.00 | 76 | 1012.7 |
| 20260506035509 | 8 | 30 | 3.2 | 11.3 | 0.00 | 0.00 | 0.00 | 76 | 1012.6 |
| 20260506035004 | 8 | 34 | 3.2 | 9.7 | 0.00 | 0.00 | 0.00 | 75 | 1012.6 |
| 20260506034504 | 8 | 55 | 3.2 | 8.0 | 0.00 | 0.00 | 0.00 | 74 | 1012.5 |
| 20260506034004 | 9 | 36 | 3.2 | 8.0 | 0.00 | 0.00 | 0.00 | 74 | 1012.7 |
| 20260506033501 | 9 | 42 | 3.2 | 9.7 | 0.00 | 0.00 | 0.00 | 74 | 1012.6 |
| 20260506033100 | 9 | 48 | 3.2 | 12.9 | 0.00 | 0.00 | 0.00 | 75 | 1012.6 |
| 20260506032559 | 9 | 45 | 4.8 | 12.9 | 0.00 | 0.00 | 0.00 | 75 | 1012.7 |
| 20260506032059 | 9 | 36 | 4.8 | 11.3 | 0.00 | 0.00 | 0.00 | 75 | 1012.8 |
| 20260506031559 | 9 | 46 | 4.8 | 16.1 | 0.00 | 0.00 | 0.00 | 75 | 1012.7 |
| 20260506031100 | 9 | 45 | 6.4 | 16.1 | 0.00 | 0.00 | 0.00 | 76 | 1012.6 |
| 20260506030556 | 9 | 30 | 4.8 | 14.5 | 0.00 | 0.00 | 0.00 | 77 | 1012.6 |
| 20260506030057 | 10 | 355 | 4.8 | 11.3 | 0.00 | 0.00 | 0.00 | 77 | 1012.6 |
| 20260506025555 | 10 | 31 | 1.6 | 8.0 | 0.00 | 0.00 | 0.00 | 76 | 1012.7 |
| 20260506025055 | 10 | 28 | 1.6 | 8.0 | 0.00 | 0.00 | 0.00 | 76 | 1012.6 |
| 20260506024601 | 10 | 43 | 1.6 | 14.5 | 0.00 | 0.00 | 0.00 | 76 | 1012.7 |
| 20260506024053 | 10 | 38 | 4.8 | 14.5 | 0.00 | 0.00 | 0.00 | 77 | 1012.7 |
| 20260506023552 | 10 | 54 | 4.8 | 14.5 | 0.00 | 0.00 | 0.00 | 77 | 1012.7 |
| 20260506023106 | 10 | 38 | 3.2 | 11.3 | 0.00 | 0.00 | 0.00 | 77 | 1012.8 |
| 20260506022550 | 10 | 31 | 3.2 | 9.7 | 0.00 | 0.00 | 0.00 | 77 | 1012.8 |
| 20260506022053 | 10 | 78 | 1.6 | 9.7 | 0.00 | 0.00 | 0.00 | 77 | 1012.8 |
| 20260506021549 | 10 | 41 | 1.6 | 4.8 | 0.00 | 0.00 | 0.00 | 77 | 1012.9 |
| 20260506021049 | 10 | 43 | 0.0 | 8.0 | 0.00 | 0.00 | 0.00 | 77 | 1012.8 |
| 20260506020548 | 10 | 36 | 3.2 | 8.0 | 0.00 | 0.00 | 0.00 | 77 | 1012.8 |
| 20260506020054 | 10 | 35 | 3.2 | 8.0 | 0.00 | 0.00 | 0.00 | 77 | 1012.9 |
| 20260506015548 | 10 | 49 | 1.6 | 12.9 | 0.00 | 0.00 | 0.00 | 77 | 1012.9 |
| 20260506015047 | 10 | 72 | 3.2 | 12.9 | 0.00 | 0.00 | 0.00 | 76 | 1012.9 |
| 20260506014547 | 10 | 52 | 0.0 | 9.7 | 0.00 | 0.00 | 0.00 | 76 | 1012.9 |
| 20260506014048 | 10 | 36 | 4.8 | 16.1 | 0.00 | 0.00 | 0.00 | 76 | 1013.0 |
| 20260506013545 | 10 | 37 | 6.4 | 16.1 | 0.00 | 0.00 | 0.00 | 76 | 1012.9 |
| 20260506013052 | 10 | 82 | 1.6 | 11.3 | 0.00 | 0.00 | 0.00 | 76 | 1013.0 |
| 20260506012548 | 10 | 44 | 1.6 | 9.7 | 0.00 | 0.00 | 0.00 | 75 | 1013.1 |
| 20260506012046 | 10 | 34 | 3.2 | 9.7 | 0.00 | 0.00 | 0.00 | 75 | 1013.1 |
| 20260506011546 | 10 | 44 | 1.6 | 9.7 | 0.00 | 0.00 | 0.00 | 75 | 1013.2 |
| 20260506011046 | 10 | 85 | 1.6 | 6.4 | 0.00 | 0.00 | 0.00 | 75 | 1013.2 |
| 20260506010544 | 10 | 51 | 0.0 | 4.8 | 0.00 | 0.00 | 0.00 | 75 | 1013.2 |
| 20260506010042 | 10 | 54 | 0.0 | 8.0 | 0.00 | 0.00 | 0.00 | 74 | 1013.2 |
| 20260506005540 | 10 | 59 | 3.2 | 11.3 | 0.00 | 0.00 | 0.00 | 74 | 1013.2 |
| 20260506005040 | 10 | 90 | 3.2 | 11.3 | 0.00 | 0.00 | 0.00 | 74 | 1013.1 |
| 20260506004539 | 10 | 55 | 3.2 | 9.7 | 0.00 | 0.00 | 0.00 | 74 | 1013.1 |
| 20260506004039 | 10 | 38 | 1.6 | 9.7 | 0.00 | 0.00 | 0.00 | 74 | 1013.3 |
| 20260506003539 | 10 | 50 | 3.2 | 12.9 | 0.00 | 0.00 | 0.00 | 74 | 1013.2 |
| 20260506003039 | 10 | 25 | 3.2 | 12.9 | 0.00 | 0.00 | 0.00 | 73 | 1013.2 |
| 20260506002538 | 10 | 59 | 3.2 | 16.1 | 0.00 | 0.00 | 0.00 | 73 | 1013.3 |
| 20260506002037 | 10 | 36 | 6.4 | 16.1 | 0.00 | 0.00 | 0.00 | 74 | 1013.4 |
| 20260506001537 | 10 | 35 | 3.2 | 11.3 | 0.00 | 0.00 | 0.00 | 74 | 1013.3 |
| 20260506001037 | 10 | 90 | 4.8 | 14.5 | 0.00 | 0.00 | 0.00 | 73 | 1013.4 |
| 20260506000535 | 10 | 50 | 4.8 | 14.5 | 0.00 | 0.00 | 0.00 | 73 | 1013.4 |
| 20260506000036 | 10 | 27 | 4.8 | 16.1 | 0.00 | 0.00 | 0.00 | 73 | 1013.3 |
| 20260505235534 | 10 | 94 | 6.4 | 16.1 | 0.00 | 0.00 | 0.00 | 73 | 1013.4 |
| 20260505235035 | 10 | 41 | 3.2 | 17.7 | 0.00 | 0.00 | 0.00 | 73 | 1013.3 |
| 20260505234633 | 10 | 5 | 3.2 | 17.7 | 0.00 | 0.00 | 0.00 | 73 | 1013.3 |
| 20260505234033 | 11 | 40 | 3.2 | 16.1 | 0.00 | 0.00 | 0.00 | 73 | 1013.3 |
| 20260505233530 | 11 | 51 | 4.8 | 20.9 | 0.00 | 0.00 | 0.00 | 73 | 1013.2 |
| 20260505233030 | 11 | 58 | 6.4 | 16.1 | 0.00 | 0.00 | 0.00 | 74 | 1013.1 |
| 20260505232529 | 11 | 37 | 4.8 | 16.1 | 0.00 | 0.00 | 0.00 | 75 | 1013.2 |
| 20260505232028 | 11 | 53 | 3.2 | 16.1 | 0.00 | 0.00 | 0.00 | 75 | 1013.2 |
| 20260505231528 | 11 | 84 | 3.2 | 16.1 | 0.00 | 0.00 | 0.00 | 76 | 1013.3 |
| 20260505231027 | 11 | 107 | 1.6 | 16.1 | 0.00 | 0.00 | 0.00 | 79 | 1013.3 |
| 20260505230525 | 11 | 51 | 8.0 | 16.1 | 0.00 | 0.00 | 0.00 | 79 | 1013.3 |
| 20260505230024 | 11 | 45 | 4.8 | 12.9 | 0.00 | 0.00 | 0.00 | 80 | 1013.2 |
| 20260505225524 | 11 | 55 | 3.2 | 9.7 | 0.00 | 0.00 | 0.00 | 80 | 1013.3 |
| 20260505225027 | 11 | 61 | 1.6 | 9.7 | 0.00 | 0.00 | 0.00 | 79 | 1013.3 |
| 20260505224524 | 11 | 77 | 3.2 | 9.7 | 0.00 | 0.00 | 0.00 | 79 | 1013.2 |
| 20260505224023 | 11 | 55 | 1.6 | 8.0 | 0.00 | 0.00 | 0.00 | 79 | 1013.2 |
| 20260505223526 | 11 | 47 | 3.2 | 14.5 | 0.00 | 0.00 | 0.00 | 78 | 1013.3 |
| 20260505223026 | 11 | 39 | 4.8 | 14.5 | 0.00 | 0.00 | 0.00 | 78 | 1013.3 |
| 20260505222527 | 11 | 42 | 1.6 | 16.1 | 0.00 | 0.00 | 0.00 | 77 | 1013.2 |
| 20260505222023 | 11 | 66 | 3.2 | 16.1 | 0.00 | 0.00 | 0.00 | 77 | 1013.3 |
| 20260505221523 | 11 | 36 | 4.8 | 16.1 | 0.00 | 0.00 | 0.00 | 77 | 1013.3 |
| 20260505221023 | 12 | 80 | 6.4 | 16.1 | 0.00 | 0.00 | 0.00 | 77 | 1013.2 |
| 20260505220522 | 12 | 38 | 4.8 | 16.1 | 0.00 | 0.00 | 0.00 | 77 | 1013.3 |
| 20260505220035 | 12 | 36 | 6.4 | 16.1 | 0.00 | 0.00 | 0.00 | 76 | 1013.2 |
| 20260505215522 | 12 | 57 | 4.8 | 12.9 | 0.00 | 0.00 | 0.00 | 75 | 1013.2 |
| 20260505215022 | 12 | 42 | 4.8 | 14.5 | 0.00 | 0.00 | 0.00 | 74 | 1013.1 |
| 20260505214525 | 12 | 48 | 3.2 | 14.5 | 0.00 | 0.00 | 0.00 | 73 | 1013.0 |
| 20260505214022 | 12 | 44 | 3.2 | 8.0 | 0.00 | 0.00 | 0.00 | 72 | 1013.0 |
| 20260505213527 | 12 | 15 | 3.2 | 6.4 | 0.00 | 0.00 | 0.00 | 72 | 1013.0 |
| 20260505213021 | 12 | 100 | 0.0 | 4.8 | 0.00 | 0.00 | 0.00 | 72 | 1012.9 |
| 20260505212521 | 12 | 61 | 0.0 | 4.8 | 0.00 | 0.00 | 0.00 | 72 | 1012.9 |
| 20260505212025 | 12 | 60 | 0.0 | 4.8 | 0.00 | 0.00 | 0.00 | 72 | 1012.9 |
| 20260505211521 | 12 | 60 | 0.0 | 4.8 | 0.00 | 0.00 | 0.00 | 72 | 1012.9 |
| 20260505211024 | 12 | 88 | 1.6 | 4.8 | 0.00 | 0.00 | 0.00 | 72 | 1012.8 |
| 20260505210521 | 12 | 59 | 0.0 | 4.8 | 0.00 | 0.00 | 0.00 | 72 | 1012.9 |
| 20260505210020 | 12 | 143 | 0.0 | 3.2 | 0.00 | 0.00 | 0.00 | 72 | 1012.9 |
| 20260505205522 | 12 | 254 | 0.0 | 4.8 | 0.00 | 0.00 | 0.00 | 72 | 1012.8 |
| 20260505205022 | 12 | 188 | 0.0 | 8.0 | 0.00 | 0.00 | 0.00 | 72 | 1012.9 |
| 20260505204520 | 12 | 111 | 1.6 | 8.0 | 0.00 | 0.00 | 0.00 | 72 | 1012.8 |
| 20260505204019 | 12 | 55 | 1.6 | 9.7 | 0.00 | 0.00 | 0.00 | 71 | 1012.8 |
| 20260505203519 | 12 | 74 | 1.6 | 9.7 | 0.00 | 0.00 | 0.00 | 71 | 1012.9 |
| 20260505203020 | 13 | 71 | 0.0 | 9.7 | 0.00 | 0.00 | 0.00 | 70 | 1012.8 |
| 20260505202520 | 13 | 38 | 0.0 | 8.0 | 0.00 | 0.00 | 0.00 | 70 | 1012.7 |
| 20260505202019 | 13 | 91 | 0.0 | 8.0 | 0.00 | 0.00 | 0.00 | 69 | 1012.7 |
| 20260505201519 | 13 | 91 | 0.0 | 8.0 | 0.00 | 0.00 | 0.00 | 69 | 1012.6 |
| 20260505201019 | 13 | 98 | 0.0 | 9.7 | 0.00 | 0.00 | 0.00 | 69 | 1012.5 |
| 20260505200519 | 13 | 71 | 1.6 | 8.0 | 0.00 | 0.00 | 0.00 | 68 | 1012.4 |
| 20260505200031 | 13 | 59 | 0.0 | 6.4 | 0.00 | 0.00 | 0.00 | 68 | 1012.4 |
| 20260505195518 | 13 | 38 | 0.0 | 6.4 | 0.00 | 0.00 | 0.00 | 67 | 1012.3 |
| 20260505195018 | 13 | 84 | 1.6 | 6.4 | 0.00 | 0.00 | 0.00 | 65 | 1012.2 |
| 20260505194517 | 13 | 17 | 0.0 | 6.4 | 0.00 | 0.00 | 0.00 | 65 | 1012.2 |
| 20260505194018 | 13 | 355 | 0.0 | 4.8 | 0.00 | 0.00 | 0.00 | 64 | 1012.1 |
| 20260505193518 | 13 | 92 | 0.0 | 6.4 | 0.00 | 0.00 | 0.00 | 64 | 1012.0 |
| 20260505193017 | 13 | 59 | 0.0 | 6.4 | 0.00 | 0.00 | 0.00 | 63 | 1011.9 |
| 20260505192517 | 13 | 43 | 0.0 | 3.2 | 0.00 | 0.00 | 0.00 | 63 | 1011.9 |
| 20260505192017 | 14 | 49 | 0.0 | 1.6 | 0.00 | 0.00 | 0.00 | 63 | 1011.8 |
| 20260505191525 | 14 | 49 | 0.0 | 1.6 | 0.00 | 0.00 | 0.00 | 63 | 1011.8 |
| 20260505191016 | 14 | 49 | 0.0 | 1.6 | 0.00 | 0.00 | 0.00 | 64 | 1011.7 |
| 20260505190518 | 14 | 44 | 0.0 | 3.2 | 0.00 | 0.00 | 0.00 | 63 | 1011.7 |
| 20260505190117 | 14 | 44 | 0.0 | 3.2 | 0.00 | 0.00 | 0.00 | 63 | 1011.7 |
| 20260505185516 | 14 | 42 | 0.0 | 4.8 | 0.00 | 0.00 | 0.00 | 62 | 1011.8 |
| 20260505185016 | 14 | 42 | 0.0 | 4.8 | 0.00 | 0.00 | 0.00 | 62 | 1011.8 |
| 20260505184516 | 14 | 42 | 0.0 | 3.2 | 0.00 | 0.00 | 0.00 | 62 | 1011.7 |
| 20260505184016 | 14 | 42 | 0.0 | 4.8 | 0.00 | 0.00 | 0.00 | 62 | 1011.6 |
| 20260505183516 | 14 | 42 | 0.0 | 4.8 | 0.00 | 0.00 | 0.00 | 62 | 1011.5 |
| 20260505183020 | 14 | 42 | 1.6 | 4.8 | 0.00 | 0.00 | 0.00 | 62 | 1011.5 |
| 20260505182515 | 14 | 32 | 0.0 | 4.8 | 0.00 | 0.00 | 0.00 | 62 | 1011.6 |
| 20260505182015 | 15 | 57 | 0.0 | 4.8 | 0.00 | 0.00 | 0.00 | 61 | 1011.4 |
| 20260505181521 | 15 | 38 | 0.0 | 6.4 | 0.00 | 0.00 | 0.00 | 61 | 1011.5 |
| 20260505181014 | 15 | 51 | 1.6 | 6.4 | 0.00 | 0.00 | 0.00 | 61 | 1011.5 |
| 20260505180514 | 15 | 59 | 1.6 | 6.4 | 0.00 | 0.00 | 0.00 | 61 | 1011.5 |
| 20260505180014 | 15 | 71 | 1.6 | 6.4 | 0.00 | 0.00 | 0.00 | 61 | 1011.5 |
| 20260505175514 | 15 | 66 | 0.0 | 6.4 | 0.00 | 0.00 | 0.00 | 60 | 1011.5 |
| 20260505175015 | 15 | 68 | 0.0 | 3.2 | 0.00 | 0.00 | 0.00 | 60 | 1011.5 |
| 20260505174513 | 15 | 82 | 0.0 | 3.2 | 0.00 | 0.00 | 0.00 | 60 | 1011.5 |
| 20260505174013 | 15 | 80 | 0.0 | 6.4 | 0.00 | 0.00 | 0.00 | 60 | 1011.5 |
| 20260505173517 | 15 | 73 | 1.6 | 9.7 | 0.00 | 0.00 | 0.00 | 59 | 1011.5 |
| 20260505173014 | 15 | 84 | 1.6 | 9.7 | 0.00 | 0.00 | 0.00 | 59 | 1011.6 |
| 20260505172613 | 15 | 37 | 0.0 | 3.2 | 0.00 | 0.00 | 0.00 | 59 | 1011.6 |
| 20260505172015 | 15 | 43 | 0.0 | 9.7 | 0.00 | 0.00 | 0.00 | 58 | 1011.5 |
| 20260505171513 | 15 | 171 | 0.0 | 8.0 | 0.00 | 0.00 | 0.00 | 58 | 1011.5 |
| 20260505171013 | 15 | 239 | 0.0 | 8.0 | 0.00 | 0.00 | 0.00 | 58 | 1011.4 |
| 20260505170512 | 16 | 88 | 0.0 | 4.8 | 0.00 | 0.00 | 0.00 | 57 | 1011.5 |
| 20260505170014 | 16 | 13 | 0.0 | 6.4 | 0.00 | 0.00 | 0.00 | 58 | 1011.6 |
| 20260505165511 | 16 | 34 | 0.0 | 8.0 | 0.00 | 0.00 | 0.00 | 57 | 1011.5 |
| 20260505165011 | 16 | 44 | 1.6 | 4.8 | 0.00 | 0.00 | 0.00 | 57 | 1011.5 |
| 20260505164511 | 16 | 44 | 0.0 | 6.4 | 0.00 | 0.00 | 0.00 | 57 | 1011.5 |
| 20260505164010 | 16 | 46 | 0.0 | 8.0 | 0.00 | 0.00 | 0.00 | 57 | 1011.4 |
| 20260505163510 | 16 | 57 | 1.6 | 8.0 | 0.00 | 0.00 | 0.00 | 56 | 1011.4 |
| 20260505163010 | 16 | 42 | 3.2 | 4.8 | 0.00 | 0.00 | 0.00 | 56 | 1011.5 |
| 20260505162610 | 16 | 64 | 0.0 | 8.0 | 0.00 | 0.00 | 0.00 | 56 | 1011.5 |
| 20260505162008 | 16 | 81 | 0.0 | 8.0 | 0.00 | 0.00 | 0.00 | 56 | 1011.4 |
| 20260505161523 | 16 | 78 | 0.0 | 4.8 | 0.00 | 0.00 | 0.00 | 56 | 1011.5 |
| 20260505161007 | 16 | 58 | 0.0 | 4.8 | 0.00 | 0.00 | 0.00 | 56 | 1011.5 |
| 20260505160510 | 16 | 38 | 0.0 | 3.2 | 0.00 | 0.00 | 0.00 | 56 | 1011.5 |
| 20260505153004 | 16 | 94 | 1.6 | 6.4 | 0.00 | 0.00 | 0.00 | 56 | 1011.7 |
| 20260505152501 | 16 | 22 | 0.0 | 6.4 | 0.00 | 0.00 | 0.00 | 55 | 1011.8 |
| 20260505152001 | 16 | 22 | 1.6 | 8.0 | 0.00 | 0.00 | 0.00 | 55 | 1011.8 |
| 20260505151503 | 16 | 49 | 1.6 | 8.0 | 0.00 | 0.00 | 0.00 | 55 | 1011.8 |
| 20260505151001 | 16 | 59 | 3.2 | 8.0 | 0.00 | 0.00 | 0.00 | 55 | 1011.8 |
| 20260505150502 | 17 | 45 | 3.2 | 8.0 | 0.00 | 0.00 | 0.00 | 55 | 1011.8 |
| 20260505140556 | 18 | 52 | 1.6 | 8.0 | 0.00 | 0.00 | 0.00 | 54 | 1012.0 |
| 20260505124550 | 17 | 64 | 4.8 | 12.9 | 0.00 | 0.00 | 0.00 | 54 | 1012.6 |
| 20260505124044 | 17 | 49 | 3.2 | 11.3 | 0.00 | 0.00 | 0.00 | 55 | 1012.5 |
| 20260505123545 | 17 | 14 | 3.2 | 11.3 | 0.00 | 0.00 | 0.00 | 55 | 1012.5 |
| 20260505123044 | 17 | 101 | 0.0 | 9.7 | 0.00 | 0.00 | 0.00 | 56 | 1012.5 |
| 20260505122545 | 17 | 43 | 3.2 | 9.7 | 0.00 | 0.00 | 0.00 | 56 | 1012.6 |
| 20260505122043 | 17 | 33 | 4.8 | 9.7 | 0.00 | 0.00 | 0.00 | 55 | 1012.6 |
| 20260505121544 | 17 | 53 | 4.8 | 9.7 | 0.00 | 0.00 | 0.00 | 55 | 1012.6 |
| 20260505121043 | 17 | 69 | 0.0 | 6.4 | 0.00 | 0.00 | 0.00 | 55 | 1012.5 |
| 20260505120543 | 17 | 65 | 0.0 | 11.3 | 0.00 | 0.00 | 0.00 | 57 | 1012.6 |
| 20260505120043 | 17 | 97 | 3.2 | 11.3 | 0.00 | 0.00 | 0.00 | 57 | 1012.6 |
| 20260505115542 | 17 | 40 | 4.8 | 12.9 | 0.00 | 0.00 | 0.00 | 58 | 1012.5 |
| 20260505115042 | 17 | 41 | 4.8 | 12.9 | 0.00 | 0.00 | 0.00 | 59 | 1012.6 |
| 20260505114542 | 17 | 268 | 3.2 | 12.9 | 0.00 | 0.00 | 0.00 | 58 | 1012.5 |
| 20260505114041 | 17 | 355 | 4.8 | 11.3 | 0.00 | 0.00 | 0.00 | 58 | 1012.7 |
| 20260505113539 | 17 | 44 | 3.2 | 14.5 | 0.00 | 0.00 | 0.00 | 58 | 1012.7 |
| 20260505113041 | 17 | 61 | 4.8 | 16.1 | 0.00 | 0.00 | 0.00 | 57 | 1012.7 |
| 20260505112540 | 17 | 38 | 4.8 | 12.9 | 0.00 | 0.00 | 0.00 | 57 | 1012.9 |
| 20260505112039 | 17 | 53 | 6.4 | 14.5 | 0.00 | 0.00 | 0.00 | 57 | 1012.8 |
| 20260505111540 | 17 | 27 | 4.8 | 14.5 | 0.00 | 0.00 | 0.00 | 58 | 1012.9 |
| 20260505111040 | 17 | 42 | 3.2 | 14.5 | 0.00 | 0.00 | 0.00 | 58 | 1012.9 |
| 20260505110538 | 17 | 65 | 3.2 | 11.3 | 0.00 | 0.00 | 0.00 | 58 | 1012.9 |
| 20260505102032 | 17 | 28 | 6.4 | 12.9 | 0.00 | 0.00 | 0.00 | 59 | 1013.1 |
| 20260505101537 | 17 | 34 | 4.8 | 9.7 | 0.00 | 0.00 | 0.00 | 61 | 1013.1 |
| 20260505101030 | 17 | 188 | 1.6 | 9.7 | 0.00 | 0.00 | 0.00 | 62 | 1013.2 |
| 20260505100528 | 16 | 207 | 1.6 | 8.0 | 0.00 | 0.00 | 0.00 | 63 | 1013.2 |
| 20260505100027 | 16 | 26 | 0.0 | 12.9 | 0.00 | 0.00 | 0.00 | 66 | 1013.3 |
| 20260505095526 | 15 | 52 | 3.2 | 12.9 | 0.00 | 0.00 | 0.00 | 66 | 1013.2 |
| 20260505095024 | 15 | 57 | 3.2 | 12.9 | 0.00 | 0.00 | 0.00 | 67 | 1013.1 |